30.06.2024;16:00;94
30.06.2024;15:00;90
30.06.2024;14:00;83
30.06.2024;13:00;86
30.06.2024;12:00;90
30.06.2024;11:00;94
30.06.2024;10:00;86
30.06.2024;09:00;79
30.06.2024;08:00;77
30.06.2024;07:00;80
30.06.2024;06:00;85
30.06.2024;05:00;90
30.06.2024;04:00;90
30.06.2024;03:00;90
30.06.2024;02:00;54
30.06.2024;01:00;51
30.06.2024;00:00;57
29.06.2024;23:00;69
29.06.2024;22:00;72
29.06.2024;21:00;87
29.06.2024;20:00;98
29.06.2024;19:00;100
29.06.2024;18:00;108
29.06.2024;17:00;109
29.06.2024;16:00;109
29.06.2024;15:00;118
29.06.2024;14:00;117
29.06.2024;13:00;107
29.06.2024;12:00;90
29.06.2024;11:00;79
29.06.2024;10:00;73
29.06.2024;09:00;60
29.06.2024;08:00;50
29.06.2024;07:00;37
29.06.2024;06:00;28
29.06.2024;05:00;34
29.06.2024;04:00;31
29.06.2024;03:00;37
29.06.2024;02:00;41
29.06.2024;01:00;45
29.06.2024;00:00;47
28.06.2024;23:00;57
28.06.2024;22:00;82
28.06.2024;21:00;105
28.06.2024;20:00;113
28.06.2024;19:00;114
28.06.2024;18:00;111
28.06.2024;17:00;111
